Regional Weather Roundup
Issued by NWS State College, PA

Home | Current Version | Previous Version | Text Only | Print | Product List | Glossary On
Versions: 1 2 3 4 5 6 7 8 9 10 11 12 13 14 15 16 17 18 19 20 21 22 23 24 25 26 27 28 29 30 31 32 33 34 35 36 37 38 39 40 41 42 43 44 45 46 47 48 49 50
000
ASUS41 KCTP 190703
RWRCTP

REGIONAL WEATHER ROUNDUP
NATIONAL WEATHER SERVICE STATE COLLEGE PA
300 AM EDT FRI SEP 19 2014

Note: "fair" indicates few or no clouds below 12,000 feet with no
significant weather and/or obstructions to visibility.

* = STATION THAT DOES NOT REPORT PRECIPITATION /E.G. RAIN...SNOW...ETC/
    THUNDER OR FOG.

PAZ002>004-007>009-013>016-020>023-029>032-190800-
WESTERN PENNSYLVANIA

CITY           SKY/WX    TMP DP  RH WIND       PRES   REMARKS
ERIE           CLEAR     50  45  83 CALM      30.22R
MEADVILLE      CLEAR     45  43  93 CALM      30.22R
FRANKLIN*      CLOUDY    45  41  87 CALM      30.23S VSB 1/4
NEW CASTLE     NOT AVBL
BEAVER COUNTY  NOT AVBL
BUTLER*        MOCLDY    48  46  93 E3        30.22S
PITTSBURGH INT PTCLDY    53  49  86 N5        30.19S
PITTSBURGH     CLEAR     52  47  83 N3        30.18S
INDIANA*       PTCLDY    50  48  93 CALM      30.24S
LATROBE        CLEAR     46  46 100 CALM      30.20S
WASHINGTON CO* CLEAR     46  45  93 CALM      30.19S
$$

PAZ004>006-010>012-017>019-024>028-033>037-041-042-045-046-049>053-190800-
CENTRAL PENNSYLVANIA

CITY           SKY/WX    TMP DP  RH WIND       PRES   REMARKS
BRADFORD       CLOUDY    46  44  93 CALM      30.22S
DUBOIS         CLEAR     46  45  96 NE6       30.21R
CLEARFIELD     PTCLDY    46  45  96 N5        30.22R
JOHNSTOWN      MOCLDY    47  44  90 NE6       30.19S
ALTOONA        MOCLDY    50  48  93 VRB3      30.20R
STATE COLLEGE    N/A     50  47  90 NE6       30.21R
WILLIAMSPORT   CLEAR     49  46  90 CALM      30.21R
SELINSGROVE    PTCLDY    49  46  90 N5        30.21R
FT INDIANTOWN  CLEAR     55  52  88 NE6       30.18R
CAPITAL CITY   CLEAR     52  48  86 CALM      30.18R
HARRISBURG     PTCLDY    53  48  83 NW6       30.17R
YORK           CLEAR     44  42  93 CALM      30.17R
$$

PAZ038>040-043-044-047-048-054-055-060>062-067>071-190800-
EASTERN PENNSYLVANIA

CITY           SKY/WX    TMP DP  RH WIND       PRES   REMARKS
SCRANTON       CLEAR     51  45  79 N5        30.21R
MOUNT POCONO   CLEAR     46  43  89 NW6       30.19R
ALLENTOWN      CLEAR     52  47  83 CALM      30.18R
QUAKERTOWN*    SUNNY     55  48  76 N6        30.18R
READING        CLEAR     56  48  74 N5        30.17R
LANCASTER      CLEAR     53  47  79 NE6       30.16R
COATESVILLE    SUNNY     55  50  82 N7        30.17R
POTTSTOWN      CLEAR     56  48  74 CALM      30.18R
BLUE BELL      CLEAR     57  52  82 N3        30.15R
DOYLESTOWN     CLEAR     54  49  83 N7        30.16R
WILLOW GROVE   NOT AVBL
NORTH PHILA    CLEAR     59  48  67 N9        30.16R
PHILADELPHIA   CLEAR     60  49  66 N12       30.14R
$$


USA.gov is the U.S. government's official web portal to all federal, state and local government web resources and services.